| time (UTC) | temp F | wind direction | speed MPH | gust MPH | rain 1hr in | rain 24hr in | rain mn in | humidity % | barometer mb |
| 20260904154531 | 71 | 360 | 4.0 | 8.0 | 0.00 | 0.21 | 0.01 | 89 | 1015.2 |
| 20260904154027 | 72 | 236 | 2.0 | 7.0 | 0.00 | 0.21 | 0.01 | 89 | 1015.3 |
| 20260904153527 | 72 | 219 | 2.0 | 8.0 | 0.00 | 0.21 | 0.01 | 89 | 1015.2 |
| 20260904153030 | 72 | 223 | 0.0 | 8.0 | 0.00 | 0.21 | 0.01 | 89 | 1015.1 |
| 20260904152538 | 72 | 360 | 2.0 | 6.0 | 0.00 | 0.21 | 0.01 | 90 | 1015.1 |
| 20260904152047 | 72 | 360 | 1.0 | 6.0 | 0.00 | 0.21 | 0.01 | 89 | 1015.1 |
| 20260904151557 | 72 | 360 | 3.0 | 6.0 | 0.00 | 0.21 | 0.01 | 89 | 1015.0 |
| 20260904151043 | 72 | 233 | 3.0 | 6.0 | 0.00 | 0.21 | 0.01 | 90 | 1015.0 |
| 20260904150547 | 72 | 246 | 1.0 | 8.0 | 0.00 | 0.21 | 0.01 | 90 | 1014.8 |
| 20260904150057 | 72 | 237 | 2.0 | 8.0 | 0.00 | 0.21 | 0.01 | 90 | 1015.0 |
| 20260904145533 | 72 | 228 | 2.0 | 4.0 | 0.00 | 0.21 | 0.01 | 90 | 1014.9 |
| 20260904145043 | 72 | 360 | 1.0 | 5.0 | 0.00 | 0.21 | 0.01 | 91 | 1014.9 |
| 20260904144558 | 71 | 229 | 2.0 | 6.0 | 0.00 | 0.21 | 0.01 | 91 | 1014.8 |
| 20260904144051 | 71 | 360 | 1.0 | 6.0 | 0.00 | 0.21 | 0.01 | 91 | 1014.8 |
| 20260904143557 | 71 | 236 | 3.0 | 7.0 | 0.00 | 0.21 | 0.01 | 91 | 1014.7 |
| 20260904143502 | 71 | 360 | 3.0 | 7.0 | 0.00 | 0.21 | 0.01 | 91 | 1014.7 |
| 20260904143101 | 71 | 229 | 2.0 | 7.0 | 0.00 | 0.21 | 0.01 | 91 | 1014.6 |
| 20260904142505 | 71 | 224 | 2.0 | 5.0 | 0.00 | 0.21 | 0.01 | 91 | 1014.5 |
| 20260904142047 | 71 | 360 | 1.0 | 5.0 | 0.00 | 0.21 | 0.01 | 92 | 1014.5 |
| 20260904141553 | 71 | 360 | 2.0 | 4.0 | 0.00 | 0.21 | 0.01 | 92 | 1014.3 |
| 20260904141047 | 71 | 246 | 2.0 | 4.0 | 0.00 | 0.21 | 0.01 | 92 | 1014.2 |
| 20260904140529 | 71 | 256 | 1.0 | 5.0 | 0.00 | 0.21 | 0.01 | 93 | 1014.1 |
| 20260904140050 | 70 | 255 | 2.0 | 5.0 | 0.00 | 0.21 | 0.01 | 93 | 1014.0 |
| 20260904135542 | 70 | 254 | 1.0 | 5.0 | 0.00 | 0.21 | 0.01 | 94 | 1013.9 |
| 20260904135034 | 70 | 239 | 1.0 | 5.0 | 0.00 | 0.21 | 0.01 | 94 | 1014.0 |
| 20260904134521 | 70 | 243 | 2.0 | 5.0 | 0.00 | 0.21 | 0.01 | 94 | 1013.9 |
| 20260904134002 | 70 | 244 | 0.0 | 6.0 | 0.00 | 0.21 | 0.01 | 94 | 1013.9 |
| 20260904133511 | 70 | 228 | 1.0 | 6.0 | 0.00 | 0.21 | 0.01 | 94 | 1013.9 |
| 20260904133051 | 70 | 227 | 1.0 | 5.0 | 0.00 | 0.21 | 0.01 | 95 | 1014.1 |
| 20260904132600 | 70 | 236 | 0.0 | 3.0 | 0.00 | 0.21 | 0.01 | 95 | 1014.1 |
| 20260904132046 | 70 | 236 | 0.0 | 3.0 | 0.00 | 0.21 | 0.01 | 95 | 1014.1 |
| 20260904131551 | 69 | 236 | 0.0 | 3.0 | 0.00 | 0.21 | 0.01 | 95 | 1014.1 |
| 20260904131056 | 69 | 236 | 0.0 | 4.0 | 0.00 | 0.21 | 0.01 | 95 | 1014.3 |
| 20260904130515 | 69 | 236 | 1.0 | 4.0 | 0.00 | 0.21 | 0.01 | 95 | 1014.3 |
| 20260904130049 | 69 | 236 | 0.0 | 4.0 | 0.00 | 0.21 | 0.01 | 95 | 1014.5 |
| 20260904125555 | 69 | 236 | 1.0 | 4.0 | 0.00 | 0.21 | 0.01 | 95 | 1014.5 |
| 20260904125101 | 69 | 236 | 0.0 | 3.0 | 0.00 | 0.21 | 0.01 | 95 | 1014.7 |
| 20260904124510 | 69 | 236 | 1.0 | 3.0 | 0.00 | 0.21 | 0.01 | 95 | 1014.8 |
| 20260904124026 | 69 | 241 | 1.0 | 3.0 | 0.00 | 0.21 | 0.01 | 95 | 1014.6 |
| 20260904123529 | 69 | 241 | 0.0 | 4.0 | 0.00 | 0.21 | 0.01 | 95 | 1014.6 |
| 20260904123037 | 69 | 240 | 1.0 | 4.0 | 0.00 | 0.21 | 0.01 | 95 | 1014.6 |
| 20260904122539 | 69 | 238 | 2.0 | 4.0 | 0.00 | 0.21 | 0.01 | 95 | 1014.7 |
| 20260904122026 | 69 | 238 | 1.0 | 3.0 | 0.00 | 0.21 | 0.01 | 95 | 1014.6 |
| 20260904121532 | 69 | 237 | 1.0 | 3.0 | 0.00 | 0.21 | 0.01 | 95 | 1014.7 |
| 20260904121055 | 69 | 235 | 2.0 | 3.0 | 0.00 | 0.21 | 0.01 | 95 | 1014.8 |
| 20260904120538 | 69 | 239 | 2.0 | 3.0 | 0.00 | 0.21 | 0.01 | 95 | 1014.6 |
| 20260904120049 | 69 | 240 | 1.0 | 3.0 | 0.00 | 0.21 | 0.01 | 95 | 1014.6 |
| 20260904115522 | 69 | 239 | 1.0 | 3.0 | 0.00 | 0.21 | 0.01 | 95 | 1014.6 |
| 20260904115027 | 69 | 239 | 0.0 | 2.0 | 0.00 | 0.21 | 0.01 | 95 | 1014.5 |
| 20260904114514 | 69 | 240 | 0.0 | 2.0 | 0.00 | 0.21 | 0.01 | 95 | 1014.4 |
| 20260904114019 | 69 | 239 | 0.0 | 1.0 | 0.00 | 0.21 | 0.01 | 95 | 1014.4 |
| 20260904113524 | 69 | 240 | 0.0 | 2.0 | 0.00 | 0.21 | 0.01 | 95 | 1014.3 |
| 20260904113032 | 69 | 240 | 0.0 | 2.0 | 0.00 | 0.21 | 0.01 | 95 | 1014.5 |
| 20260904112525 | 69 | 360 | 0.0 | 2.0 | 0.00 | 0.21 | 0.01 | 95 | 1014.3 |
| 20260904112033 | 69 | 239 | 0.0 | 2.0 | 0.00 | 0.21 | 0.01 | 95 | 1014.3 |
| 20260904111521 | 69 | 240 | 0.0 | 2.0 | 0.00 | 0.21 | 0.01 | 95 | 1014.2 |
| 20260904111028 | 69 | 239 | 0.0 | 2.0 | 0.00 | 0.21 | 0.01 | 95 | 1014.0 |
| 20260904110533 | 69 | 239 | 0.0 | 2.0 | 0.00 | 0.21 | 0.01 | 95 | 1013.9 |
| 20260904110025 | 69 | 240 | 0.0 | 1.0 | 0.00 | 0.21 | 0.01 | 95 | 1013.9 |
| 20260904105532 | 69 | 240 | 0.0 | 1.0 | 0.00 | 0.21 | 0.01 | 95 | 1014.0 |
| 20260904105039 | 69 | 240 | 0.0 | 0.0 | 0.00 | 0.21 | 0.01 | 95 | 1013.9 |
| 20260904104507 | 69 | 240 | 0.0 | 0.0 | 0.00 | 0.21 | 0.01 | 95 | 1014.0 |
| 20260904104045 | 69 | 239 | 0.0 | 2.0 | 0.00 | 0.21 | 0.01 | 95 | 1013.9 |
| 20260904103552 | 69 | 239 | 0.0 | 4.0 | 0.00 | 0.21 | 0.01 | 95 | 1013.7 |
| 20260904103039 | 69 | 360 | 1.0 | 3.0 | 0.00 | 0.21 | 0.01 | 95 | 1013.8 |
| 20260904102547 | 69 | 239 | 0.0 | 3.0 | 0.00 | 0.21 | 0.01 | 95 | 1013.7 |
| 20260904102056 | 69 | 240 | 0.0 | 3.0 | 0.00 | 0.21 | 0.01 | 95 | 1013.9 |
| 20260904101507 | 69 | 239 | 1.0 | 3.0 | 0.00 | 0.21 | 0.01 | 95 | 1013.7 |
| 20260904101052 | 69 | 239 | 0.0 | 3.0 | 0.00 | 0.21 | 0.01 | 95 | 1013.8 |
| 20260904100558 | 69 | 239 | 1.0 | 3.0 | 0.00 | 0.21 | 0.01 | 95 | 1013.7 |
| 20260904100008 | 69 | 239 | 0.0 | 3.0 | 0.00 | 0.21 | 0.01 | 95 | 1013.7 |
| 20260904095521 | 69 | 239 | 0.0 | 3.0 | 0.00 | 0.21 | 0.01 | 95 | 1013.6 |
| 20260904095021 | 69 | 248 | 0.0 | 2.0 | 0.00 | 0.21 | 0.01 | 95 | 1013.7 |
| 20260904094506 | 69 | 248 | 0.0 | 1.0 | 0.00 | 0.21 | 0.01 | 95 | 1013.8 |
| 20260904094104 | 69 | 248 | 0.0 | 1.0 | 0.00 | 0.21 | 0.01 | 95 | 1013.8 |
| 20260904093551 | 69 | 248 | 0.0 | 2.0 | 0.00 | 0.21 | 0.01 | 95 | 1013.9 |
| 20260904093101 | 69 | 248 | 0.0 | 2.0 | 0.00 | 0.21 | 0.01 | 95 | 1013.7 |
| 20260904092506 | 69 | 248 | 0.0 | 2.0 | 0.00 | 0.21 | 0.01 | 95 | 1013.6 |
| 20260904092021 | 69 | 247 | 0.0 | 3.0 | 0.00 | 0.21 | 0.01 | 95 | 1013.5 |
| 20260904091533 | 69 | 248 | 1.0 | 3.0 | 0.00 | 0.21 | 0.01 | 95 | 1013.6 |
| 20260904091038 | 69 | 248 | 0.0 | 2.0 | 0.00 | 0.21 | 0.01 | 95 | 1013.7 |
| 20260904090547 | 69 | 248 | 0.0 | 2.0 | 0.00 | 0.21 | 0.01 | 95 | 1013.6 |
| 20260904090048 | 69 | 248 | 0.0 | 1.0 | 0.00 | 0.21 | 0.01 | 95 | 1013.5 |
| 20260904085535 | 69 | 248 | 0.0 | 1.0 | 0.00 | 0.21 | 0.01 | 95 | 1013.5 |
| 20260904085034 | 69 | 247 | 0.0 | 2.0 | 0.00 | 0.21 | 0.01 | 95 | 1013.6 |
| 20260904084537 | 69 | 248 | 0.0 | 2.0 | 0.00 | 0.21 | 0.01 | 95 | 1013.7 |
| 20260904084049 | 69 | 248 | 0.0 | 3.0 | 0.00 | 0.21 | 0.01 | 95 | 1013.7 |
| 20260904083556 | 69 | 248 | 1.0 | 3.0 | 0.00 | 0.21 | 0.01 | 95 | 1013.7 |
| 20260904083043 | 69 | 248 | 0.0 | 4.0 | 0.00 | 0.21 | 0.01 | 95 | 1013.8 |
| 20260904082548 | 69 | 247 | 1.0 | 4.0 | 0.00 | 0.21 | 0.01 | 95 | 1013.7 |
| 20260904082038 | 69 | 248 | 1.0 | 4.0 | 0.00 | 0.21 | 0.01 | 95 | 1013.7 |
| 20260904081540 | 69 | 237 | 0.0 | 2.0 | 0.00 | 0.21 | 0.01 | 95 | 1013.7 |
| 20260904081046 | 69 | 238 | 0.0 | 1.0 | 0.00 | 0.21 | 0.01 | 95 | 1013.6 |
| 20260904080552 | 69 | 238 | 0.0 | 2.0 | 0.00 | 0.21 | 0.01 | 95 | 1013.6 |
| 20260904080105 | 69 | 238 | 0.0 | 3.0 | 0.00 | 0.21 | 0.01 | 95 | 1013.7 |
| 20260904075512 | 69 | 237 | 1.0 | 4.0 | 0.00 | 0.21 | 0.01 | 95 | 1013.7 |
| 20260904075036 | 69 | 236 | 2.0 | 4.0 | 0.00 | 0.21 | 0.01 | 95 | 1013.6 |
| 20260904074538 | 69 | 360 | 0.0 | 3.0 | 0.00 | 0.21 | 0.01 | 95 | 1013.6 |
| 20260904074032 | 69 | 242 | 1.0 | 3.0 | 0.00 | 0.21 | 0.01 | 95 | 1013.6 |
| 20260904073524 | 69 | 242 | 0.0 | 2.0 | 0.00 | 0.21 | 0.01 | 95 | 1013.5 |
| 20260904073028 | 69 | 242 | 0.0 | 1.0 | 0.00 | 0.21 | 0.01 | 95 | 1013.4 |
| 20260904072533 | 69 | 242 | 0.0 | 2.0 | 0.00 | 0.21 | 0.01 | 95 | 1013.5 |
| 20260904072031 | 69 | 242 | 0.0 | 2.0 | 0.00 | 0.21 | 0.01 | 95 | 1013.6 |
| 20260904071524 | 69 | 242 | 0.0 | 2.0 | 0.00 | 0.21 | 0.01 | 95 | 1013.5 |
| 20260904071033 | 69 | 242 | 1.0 | 2.0 | 0.00 | 0.21 | 0.01 | 95 | 1013.6 |
| 20260904070540 | 69 | 244 | 0.0 | 2.0 | 0.00 | 0.21 | 0.01 | 95 | 1013.6 |
| 20260904070051 | 69 | 244 | 0.0 | 2.0 | 0.00 | 0.21 | 0.01 | 95 | 1013.7 |
| 20260904065555 | 69 | 244 | 0.0 | 3.0 | 0.00 | 0.21 | 0.01 | 95 | 1013.6 |
| 20260904065046 | 69 | 244 | 0.0 | 3.0 | 0.00 | 0.21 | 0.01 | 95 | 1013.7 |
| 20260904064602 | 69 | 244 | 0.0 | 2.0 | 0.00 | 0.21 | 0.01 | 95 | 1013.8 |
| 20260904064040 | 69 | 244 | 0.0 | 4.0 | 0.00 | 0.21 | 0.01 | 95 | 1013.7 |
| 20260904063550 | 69 | 244 | 1.0 | 4.0 | 0.00 | 0.21 | 0.01 | 95 | 1013.7 |
| 20260904063122 | 69 | 248 | 1.0 | 4.0 | 0.00 | 0.21 | 0.01 | 95 | 1013.7 |
| 20260904062507 | 69 | 250 | 1.0 | 4.0 | 0.00 | 0.21 | 0.01 | 95 | 1013.7 |
| 20260904062008 | 69 | 243 | 0.0 | 4.0 | 0.00 | 0.21 | 0.01 | 95 | 1013.8 |
| 20260904061556 | 69 | 244 | 1.0 | 3.0 | 0.00 | 0.21 | 0.01 | 95 | 1013.7 |
| 20260904061038 | 69 | 244 | 0.0 | 5.0 | 0.01 | 0.21 | 0.01 | 95 | 1013.7 |
| 20260904060542 | 69 | 250 | 1.0 | 3.0 | 0.01 | 0.21 | 0.01 | 95 | 1013.8 |
| 20260904060058 | 69 | 252 | 0.0 | 3.0 | 0.01 | 0.31 | 0.01 | 95 | 1013.7 |
| 20260904055540 | 69 | 252 | 0.0 | 3.0 | 0.01 | 0.31 | 0.01 | 95 | 1013.7 |
| 20260904055041 | 69 | 253 | 0.0 | 3.0 | 0.01 | 0.31 | 0.01 | 95 | 1013.7 |
| 20260904054550 | 69 | 253 | 0.0 | 2.0 | 0.01 | 0.31 | 0.01 | 95 | 1013.6 |
| 20260904054024 | 69 | 253 | 0.0 | 3.0 | 0.01 | 0.31 | 0.01 | 95 | 1013.5 |
| 20260904053522 | 69 | 253 | 1.0 | 3.0 | 0.01 | 0.31 | 0.01 | 95 | 1013.5 |
| 20260904053035 | 68 | 275 | 0.0 | 1.0 | 0.01 | 0.31 | 0.01 | 95 | 1013.6 |
| 20260904052536 | 68 | 301 | 0.0 | 0.0 | 0.01 | 0.31 | 0.01 | 94 | 1013.5 |
| 20260904052040 | 68 | 301 | 0.0 | 0.0 | 0.01 | 0.31 | 0.01 | 94 | 1013.6 |
| 20260904051550 | 68 | 301 | 0.0 | 0.0 | 0.01 | 0.31 | 0.01 | 94 | 1013.7 |
| 20260904051055 | 68 | 301 | 0.0 | 0.0 | 0.00 | 0.30 | 0.00 | 94 | 1013.7 |
| 20260904050543 | 68 | 301 | 0.0 | 0.0 | 0.00 | 0.30 | 0.00 | 94 | 1013.6 |
| 20260904050045 | 68 | 301 | 0.0 | 0.0 | 0.00 | 0.34 | 0.00 | 94 | 1013.5 |
| 20260904045546 | 68 | 301 | 0.0 | 0.0 | 0.00 | 0.34 | 0.00 | 94 | 1013.5 |
| 20260904045058 | 68 | 301 | 0.0 | 0.0 | 0.00 | 0.34 | 0.00 | 94 | 1013.4 |
| 20260904044602 | 68 | 301 | 0.0 | 0.0 | 0.00 | 0.34 | 0.00 | 94 | 1013.4 |
| 20260904044506 | 68 | 301 | 0.0 | 0.0 | 0.00 | 0.34 | 0.00 | 94 | 1013.4 |
| 20260904044048 | 69 | 301 | 0.0 | 0.0 | 0.00 | 0.34 | 0.00 | 94 | 1013.4 |
| 20260904043558 | 69 | 301 | 0.0 | 0.0 | 0.00 | 0.34 | 0.00 | 94 | 1013.4 |
| 20260904043104 | 69 | 301 | 0.0 | 0.0 | 0.00 | 0.34 | 0.00 | 94 | 1013.3 |
| 20260904042506 | 69 | 301 | 0.0 | 0.0 | 0.00 | 0.34 | 0.00 | 94 | 1013.3 |
| 20260904042006 | 69 | 301 | 0.0 | 0.0 | 0.00 | 0.34 | 0.00 | 94 | 1013.3 |
| 20260904041520 | 69 | 301 | 0.0 | 0.0 | 0.00 | 0.34 | 0.00 | 94 | 1013.3 |
| 20260904041059 | 69 | 301 | 0.0 | 0.0 | 0.00 | 0.34 | 0.00 | 94 | 1013.3 |
| 20260904040514 | 69 | 301 | 0.0 | 0.0 | 0.00 | 0.34 | 0.00 | 94 | 1013.3 |
| 20260904040021 | 69 | 306 | 0.0 | 0.0 | 0.00 | 0.53 | 0.34 | 94 | 1013.2 |
| 20260904035515 | 69 | 306 | 0.0 | 0.0 | 0.00 | 0.53 | 0.34 | 94 | 1013.2 |
| 20260904035025 | 69 | 306 | 0.0 | 0.0 | 0.00 | 0.53 | 0.34 | 94 | 1013.1 |
| 20260904034525 | 69 | 306 | 0.0 | 0.0 | 0.00 | 0.53 | 0.34 | 94 | 1013.1 |
| 20260904034026 | 69 | 306 | 0.0 | 0.0 | 0.00 | 0.53 | 0.34 | 94 | 1013.2 |
| 20260904033537 | 69 | 306 | 0.0 | 0.0 | 0.00 | 0.53 | 0.34 | 94 | 1013.2 |
| 20260904033044 | 69 | 306 | 0.0 | 0.0 | 0.00 | 0.53 | 0.34 | 94 | 1013.3 |
| 20260904032550 | 69 | 306 | 0.0 | 0.0 | 0.00 | 0.53 | 0.34 | 94 | 1013.5 |
| 20260904032038 | 69 | 306 | 0.0 | 0.0 | 0.00 | 0.53 | 0.34 | 94 | 1013.4 |
| 20260904031523 | 70 | 306 | 0.0 | 0.0 | 0.00 | 0.53 | 0.34 | 94 | 1013.5 |
| 20260904031009 | 70 | 306 | 0.0 | 0.0 | 0.00 | 0.53 | 0.34 | 94 | 1013.4 |
| 20260904030550 | 70 | 306 | 0.0 | 0.0 | 0.00 | 0.53 | 0.34 | 94 | 1013.4 |
| 20260904030042 | 70 | 306 | 0.0 | 0.0 | 0.00 | 1.15 | 0.34 | 94 | 1013.4 |
| 20260904025553 | 70 | 306 | 0.0 | 0.0 | 0.00 | 1.15 | 0.34 | 94 | 1013.5 |
| 20260904025054 | 70 | 306 | 0.0 | 0.0 | 0.00 | 1.15 | 0.34 | 94 | 1013.6 |
| 20260904024505 | 70 | 306 | 0.0 | 0.0 | 0.00 | 1.15 | 0.34 | 94 | 1013.3 |
| 20260904024006 | 70 | 306 | 0.0 | 0.0 | 0.00 | 1.15 | 0.34 | 94 | 1013.2 |
| 20260904023517 | 70 | 306 | 0.0 | 1.0 | 0.00 | 1.15 | 0.34 | 94 | 1013.2 |
| 20260904023036 | 70 | 306 | 0.0 | 1.0 | 0.00 | 1.15 | 0.34 | 94 | 1012.9 |
| 20260904022540 | 70 | 306 | 0.0 | 0.0 | 0.00 | 1.15 | 0.34 | 94 | 1013.0 |
| 20260904022015 | 70 | 306 | 0.0 | 0.0 | 0.00 | 1.15 | 0.34 | 94 | 1013.2 |
| 20260904021541 | 70 | 306 | 0.0 | 0.0 | 0.00 | 1.15 | 0.34 | 94 | 1013.0 |
| 20260904021032 | 71 | 306 | 0.0 | 0.0 | 0.00 | 1.15 | 0.34 | 94 | 1013.0 |
| 20260904020514 | 71 | 306 | 0.0 | 0.0 | 0.00 | 1.15 | 0.34 | 93 | 1013.2 |
| 20260904020023 | 71 | 306 | 0.0 | 1.0 | 0.00 | 1.21 | 0.34 | 93 | 1013.3 |
| 20260904015534 | 71 | 306 | 0.0 | 1.0 | 0.00 | 1.21 | 0.34 | 93 | 1013.3 |
| 20260904015038 | 71 | 306 | 0.0 | 0.0 | 0.00 | 1.21 | 0.34 | 93 | 1013.2 |
| 20260904014547 | 71 | 306 | 0.0 | 0.0 | 0.00 | 1.21 | 0.34 | 93 | 1013.3 |
| 20260904014033 | 71 | 306 | 0.0 | 3.0 | 0.00 | 1.21 | 0.34 | 93 | 1013.2 |
| 20260904013518 | 71 | 306 | 0.0 | 3.0 | 0.00 | 1.21 | 0.34 | 93 | 1013.2 |
| 20260904013012 | 71 | 332 | 0.0 | 3.0 | 0.00 | 1.21 | 0.34 | 93 | 1013.4 |
| 20260904012604 | 72 | 331 | 0.0 | 3.0 | 0.00 | 1.21 | 0.34 | 93 | 1013.6 |
| 20260904012502 | 72 | 284 | 0.0 | 3.0 | 0.00 | 1.21 | 0.34 | 93 | 1013.6 |
| 20260904012104 | 72 | 283 | 0.0 | 3.0 | 0.00 | 1.21 | 0.34 | 93 | 1013.6 |
| 20260904011513 | 72 | 280 | 0.0 | 3.0 | 0.00 | 1.21 | 0.34 | 93 | 1013.4 |
| 20260904011028 | 72 | 331 | 0.0 | 3.0 | 0.00 | 1.21 | 0.34 | 93 | 1013.5 |
| 20260904010530 | 72 | 331 | 0.0 | 4.0 | 0.01 | 1.21 | 0.34 | 93 | 1013.4 |
| 20260904010039 | 72 | 330 | 0.0 | 4.0 | 0.02 | 1.22 | 0.34 | 93 | 1013.3 |
| 20260904005527 | 72 | 253 | 1.0 | 3.0 | 0.04 | 1.22 | 0.34 | 93 | 1012.8 |
| 20260904005020 | 72 | 327 | 0.0 | 5.0 | 0.06 | 1.22 | 0.34 | 93 | 1012.5 |
| 20260904004523 | 72 | 260 | 2.0 | 5.0 | 0.08 | 1.22 | 0.34 | 93 | 1012.2 |
| 20260904004031 | 72 | 200 | 1.0 | 8.0 | 0.10 | 1.22 | 0.34 | 93 | 1011.7 |
| 20260904003536 | 72 | 216 | 2.0 | 8.0 | 0.10 | 1.22 | 0.34 | 93 | 1011.4 |
| 20260904003040 | 72 | 197 | 1.0 | 5.0 | 0.12 | 1.22 | 0.34 | 93 | 1011.1 |
| 20260904002548 | 72 | 195 | 0.0 | 8.0 | 0.14 | 1.22 | 0.34 | 92 | 1011.1 |
| 20260904002054 | 72 | 193 | 2.0 | 8.0 | 0.16 | 1.22 | 0.34 | 92 | 1011.2 |
| 20260904001606 | 72 | 204 | 2.0 | 5.0 | 0.17 | 1.22 | 0.34 | 92 | 1011.3 |
| 20260904001044 | 72 | 194 | 1.0 | 6.0 | 0.18 | 1.22 | 0.34 | 92 | 1011.7 |
| 20260904000529 | 73 | 188 | 3.0 | 6.0 | 0.18 | 1.21 | 0.33 | 92 | 1011.7 |
| 20260904000024 | 73 | 240 | 1.0 | 11.0 | 0.17 | 1.25 | 0.32 | 92 | 1012.1 |
| 20260903235531 | 73 | 178 | 3.0 | 11.0 | 0.15 | 1.23 | 0.30 | 92 | 1012.7 |
| 20260903235040 | 73 | 216 | 4.0 | 10.0 | 0.13 | 1.21 | 0.28 | 91 | 1013.0 |
| 20260903234532 | 73 | 360 | 4.0 | 13.0 | 0.11 | 1.19 | 0.26 | 91 | 1013.3 |
| 20260903234004 | 73 | 252 | 4.0 | 13.0 | 0.09 | 1.17 | 0.24 | 91 | 1013.3 |
| 20260903233549 | 74 | 257 | 4.0 | 13.0 | 0.09 | 1.17 | 0.24 | 90 | 1013.2 |
| 20260903233054 | 74 | 238 | 5.0 | 11.0 | 0.07 | 1.14 | 0.22 | 90 | 1013.2 |
| 20260903232540 | 74 | 235 | 5.0 | 9.0 | 0.05 | 1.12 | 0.20 | 89 | 1013.3 |
| 20260903232036 | 75 | 256 | 3.0 | 11.0 | 0.04 | 1.11 | 0.18 | 89 | 1013.3 |
| 20260903231541 | 75 | 360 | 5.0 | 15.0 | 0.03 | 1.10 | 0.17 | 88 | 1013.6 |
| 20260903231049 | 75 | 221 | 5.0 | 15.0 | 0.02 | 1.09 | 0.16 | 88 | 1013.6 |
| 20260903230552 | 75 | 360 | 4.0 | 12.0 | 0.01 | 1.08 | 0.15 | 88 | 1013.8 |
| 20260903230040 | 75 | 175 | 3.0 | 8.0 | 0.01 | 1.08 | 0.15 | 88 | 1013.7 |
| 20260903225546 | 76 | 235 | 3.0 | 8.0 | 0.01 | 1.08 | 0.15 | 88 | 1013.6 |
| 20260903225053 | 76 | 360 | 3.0 | 8.0 | 0.01 | 1.08 | 0.15 | 88 | 1013.3 |
| 20260903224505 | 76 | 244 | 3.0 | 6.0 | 0.01 | 1.08 | 0.15 | 89 | 1013.2 |
| 20260903224020 | 76 | 360 | 3.0 | 6.0 | 0.01 | 1.08 | 0.15 | 89 | 1013.2 |
| 20260903223525 | 76 | 360 | 2.0 | 4.0 | 0.01 | 1.08 | 0.15 | 89 | 1013.3 |
| 20260903223033 | 76 | 360 | 2.0 | 4.0 | 0.01 | 1.08 | 0.15 | 89 | 1013.3 |
| 20260903222546 | 76 | 209 | 1.0 | 4.0 | 0.01 | 1.08 | 0.15 | 88 | 1013.1 |
| 20260903222035 | 77 | 209 | 1.0 | 4.0 | 0.00 | 1.07 | 0.14 | 88 | 1013.2 |
| 20260903221516 | 77 | 202 | 1.0 | 4.0 | 0.00 | 1.07 | 0.14 | 88 | 1013.2 |
| 20260903221030 | 77 | 204 | 1.0 | 3.0 | 0.00 | 1.07 | 0.14 | 88 | 1013.1 |
| 20260903220536 | 77 | 360 | 1.0 | 3.0 | 0.00 | 1.07 | 0.14 | 87 | 1013.1 |
| 20260903220048 | 77 | 196 | 1.0 | 3.0 | 0.00 | 1.07 | 0.14 | 87 | 1013.1 |
| 20260903215558 | 77 | 195 | 1.0 | 5.0 | 0.00 | 1.07 | 0.14 | 87 | 1012.8 |
| 20260903215058 | 77 | 195 | 1.0 | 3.0 | 0.00 | 1.07 | 0.14 | 87 | 1012.6 |
| 20260903214511 | 77 | 188 | 0.0 | 3.0 | 0.00 | 1.07 | 0.14 | 87 | 1012.4 |
| 20260903214050 | 77 | 188 | 0.0 | 3.0 | 0.00 | 1.07 | 0.14 | 87 | 1012.2 |
| 20260903213556 | 77 | 188 | 1.0 | 3.0 | 0.00 | 1.07 | 0.14 | 86 | 1012.0 |
| 20260903213049 | 77 | 188 | 0.0 | 5.0 | 0.00 | 1.07 | 0.14 | 86 | 1011.8 |
| 20260903212544 | 77 | 196 | 2.0 | 5.0 | 0.00 | 1.07 | 0.14 | 86 | 1012.0 |
| 20260903212052 | 77 | 200 | 1.0 | 4.0 | 0.00 | 1.07 | 0.14 | 85 | 1012.0 |
| 20260903211552 | 77 | 246 | 0.0 | 4.0 | 0.00 | 1.07 | 0.14 | 85 | 1011.7 |
| 20260903211056 | 77 | 360 | 0.0 | 3.0 | 0.00 | 1.07 | 0.14 | 85 | 1011.6 |
| 20260903210508 | 77 | 276 | 1.0 | 2.0 | 0.00 | 1.07 | 0.14 | 85 | 1011.7 |
| 20260903210006 | 77 | 258 | 0.0 | 3.0 | 0.00 | 1.07 | 0.14 | 85 | 1011.9 |
| 20260903205518 | 77 | 258 | 0.0 | 4.0 | 0.00 | 1.07 | 0.14 | 85 | 1011.7 |
| 20260903205022 | 77 | 258 | 0.0 | 4.0 | 0.00 | 1.07 | 0.14 | 85 | 1011.9 |
| 20260903204540 | 77 | 360 | 1.0 | 3.0 | 0.00 | 1.07 | 0.14 | 85 | 1012.1 |
| 20260903204044 | 77 | 360 | 2.0 | 3.0 | 0.00 | 1.07 | 0.14 | 85 | 1012.1 |
| 20260903203552 | 77 | 263 | 0.0 | 3.0 | 0.00 | 1.07 | 0.14 | 84 | 1012.2 |
| 20260903203100 | 77 | 262 | 1.0 | 3.0 | 0.00 | 1.07 | 0.14 | 83 | 1012.2 |
| 20260903202548 | 77 | 262 | 1.0 | 3.0 | 0.00 | 1.07 | 0.14 | 83 | 1012.2 |
| 20260903202055 | 78 | 262 | 0.0 | 2.0 | 0.00 | 1.07 | 0.14 | 84 | 1012.2 |
| 20260903201558 | 78 | 262 | 0.0 | 3.0 | 0.00 | 1.07 | 0.14 | 84 | 1012.3 |
| 20260903201050 | 78 | 261 | 1.0 | 5.0 | 0.00 | 1.07 | 0.14 | 83 | 1012.3 |
| 20260903200551 | 78 | 360 | 2.0 | 5.0 | 0.00 | 1.07 | 0.14 | 83 | 1012.3 |
| 20260903200044 | 78 | 360 | 2.0 | 5.0 | 0.00 | 1.07 | 0.14 | 82 | 1012.3 |
| 20260903195551 | 78 | 360 | 1.0 | 5.0 | 0.00 | 1.07 | 0.14 | 82 | 1012.5 |
| 20260903195101 | 78 | 360 | 2.0 | 5.0 | 0.00 | 1.07 | 0.14 | 82 | 1012.5 |
| 20260903194544 | 78 | 360 | 2.0 | 4.0 | 0.00 | 1.07 | 0.14 | 82 | 1012.5 |
| 20260903194055 | 78 | 360 | 1.0 | 6.0 | 0.00 | 1.07 | 0.14 | 83 | 1012.5 |
| 20260903193541 | 78 | 199 | 0.0 | 6.0 | 0.00 | 1.07 | 0.14 | 82 | 1012.4 |
| 20260903193048 | 78 | 360 | 2.0 | 5.0 | 0.00 | 1.07 | 0.14 | 82 | 1012.6 |
| 20260903192537 | 77 | 244 | 2.0 | 6.0 | 0.00 | 1.07 | 0.14 | 82 | 1012.7 |
| 20260903192039 | 77 | 360 | 2.0 | 6.0 | 0.00 | 1.07 | 0.14 | 82 | 1012.8 |
| 20260903191546 | 77 | 360 | 2.0 | 5.0 | 0.00 | 1.07 | 0.14 | 82 | 1013.0 |
| 20260903191054 | 77 | 360 | 3.0 | 5.0 | 0.00 | 1.07 | 0.14 | 81 | 1013.1 |
| 20260903190504 | 77 | 360 | 2.0 | 5.0 | 0.00 | 1.07 | 0.14 | 81 | 1013.1 |
| 20260903190018 | 77 | 250 | 2.0 | 4.0 | 0.00 | 1.07 | 0.14 | 81 | 1013.0 |
| 20260903185529 | 77 | 272 | 1.0 | 4.0 | 0.00 | 1.07 | 0.14 | 82 | 1013.0 |
| 20260903185035 | 77 | 272 | 2.0 | 5.0 | 0.00 | 1.07 | 0.14 | 81 | 1013.0 |
| 20260903184549 | 77 | 252 | 2.0 | 6.0 | 0.00 | 1.07 | 0.14 | 81 | 1013.2 |
| 20260903184048 | 77 | 360 | 2.0 | 6.0 | 0.00 | 1.07 | 0.14 | 80 | 1013.2 |
| 20260903183535 | 77 | 242 | 2.0 | 7.0 | 0.00 | 1.07 | 0.14 | 80 | 1013.3 |
| 20260903183041 | 77 | 360 | 3.0 | 9.0 | 0.00 | 1.07 | 0.14 | 79 | 1013.3 |
| 20260903182551 | 77 | 360 | 4.0 | 9.0 | 0.00 | 1.07 | 0.14 | 79 | 1013.4 |
| 20260903182054 | 77 | 246 | 3.0 | 7.0 | 0.00 | 1.07 | 0.14 | 79 | 1013.2 |
| 20260903181600 | 77 | 360 | 3.0 | 8.0 | 0.00 | 1.07 | 0.14 | 80 | 1013.1 |
| 20260903181501 | 77 | 360 | 2.0 | 8.0 | 0.00 | 1.07 | 0.14 | 79 | 1013.1 |
| 20260903181053 | 77 | 360 | 3.0 | 9.0 | 0.00 | 1.07 | 0.14 | 79 | 1013.0 |
| 20260903180600 | 78 | 360 | 3.0 | 9.0 | 0.00 | 1.07 | 0.14 | 79 | 1013.1 |
| 20260903180503 | 78 | 360 | 4.0 | 9.0 | 0.00 | 1.07 | 0.14 | 79 | 1013.1 |
| 20260903180003 | 78 | 227 | 3.0 | 8.0 | 0.00 | 1.07 | 0.14 | 78 | 1013.0 |
| 20260903175551 | 78 | 360 | 2.0 | 7.0 | 0.00 | 1.07 | 0.14 | 79 | 1013.1 |
| 20260903175102 | 78 | 360 | 3.0 | 8.0 | 0.00 | 1.07 | 0.14 | 79 | 1013.1 |
| 20260903174512 | 77 | 211 | 2.0 | 6.0 | 0.00 | 1.07 | 0.14 | 79 | 1013.1 |
| 20260903174051 | 77 | 238 | 3.0 | 8.0 | 0.00 | 1.07 | 0.14 | 78 | 1013.0 |
| 20260903173509 | 78 | 246 | 4.0 | 11.0 | 0.00 | 1.07 | 0.14 | 78 | 1013.0 |
| 20260903173052 | 78 | 360 | 4.0 | 11.0 | 0.00 | 1.07 | 0.14 | 78 | 1013.1 |
| 20260903172537 | 78 | 360 | 4.0 | 13.0 | 0.00 | 1.07 | 0.14 | 77 | 1013.2 |
| 20260903172044 | 78 | 237 | 5.0 | 13.0 | 0.00 | 1.07 | 0.14 | 76 | 1013.2 |
| 20260903171557 | 79 | 360 | 6.0 | 11.0 | 0.00 | 1.07 | 0.14 | 76 | 1013.3 |
| 20260903171007 | 79 | 271 | 4.0 | 12.0 | 0.00 | 1.07 | 0.14 | 77 | 1013.3 |
| 20260903170525 | 79 | 241 | 6.0 | 17.0 | 0.00 | 1.07 | 0.14 | 76 | 1013.2 |
| 20260903170031 | 79 | 360 | 7.0 | 17.0 | 0.00 | 1.07 | 0.14 | 74 | 1013.2 |
| 20260903165535 | 79 | 265 | 5.0 | 14.0 | 0.00 | 1.07 | 0.14 | 76 | 1013.3 |
| 20260903165039 | 79 | 247 | 6.0 | 14.0 | 0.00 | 1.07 | 0.14 | 76 | 1013.2 |
| 20260903164548 | 80 | 360 | 5.0 | 12.0 | 0.00 | 1.07 | 0.14 | 76 | 1013.2 |
| 20260903164053 | 80 | 218 | 5.0 | 11.0 | 0.00 | 1.07 | 0.14 | 76 | 1013.1 |
| 20260903163538 | 80 | 248 | 7.0 | 12.0 | 0.00 | 1.07 | 0.14 | 76 | 1013.2 |
| 20260903163029 | 80 | 257 | 6.0 | 12.0 | 0.00 | 1.07 | 0.14 | 76 | 1013.2 |
| 20260903162515 | 80 | 360 | 4.0 | 10.0 | 0.00 | 1.07 | 0.14 | 76 | 1013.2 |
| 20260903162024 | 80 | 360 | 5.0 | 11.0 | 0.00 | 1.07 | 0.14 | 75 | 1013.3 |
| 20260903161527 | 80 | 231 | 6.0 | 13.0 | 0.00 | 1.07 | 0.14 | 75 | 1013.4 |
| 20260903161007 | 80 | 360 | 4.0 | 13.0 | 0.00 | 1.07 | 0.14 | 76 | 1013.4 |
| 20260903160517 | 80 | 360 | 4.0 | 10.0 | 0.00 | 1.07 | 0.14 | 75 | 1013.2 |
| 20260903160106 | 79 | 257 | 3.0 | 12.0 | 0.00 | 1.07 | 0.14 | 75 | 1013.2 |
| 20260903155549 | 79 | 360 | 5.0 | 12.0 | 0.00 | 1.07 | 0.14 | 75 | 1013.1 |
| 20260903155058 | 80 | 360 | 3.0 | 8.0 | 0.00 | 1.07 | 0.14 | 76 | 1013.2 |